Home > Weather > Amsterdam Island > Past weeks

Flag for French Southern Territories Past Weather in Amsterdam Island, French Southern Territories — Yesterday and Last 2 Weeks

Now
54 °F

Cool.


Feels Like: N/A
Forecast: 56 / 62 °F
Wind: N/A

Location: Martin De Vivies Ile Amsterdam

Current Time: May 26, 2016 at 1:47:01 PM

Latest Report: May 26, 2016 at 1:00 PM


Visibility: N/A

Pressure: 29.93 "Hg

Humidity: 57%

Dew Point: 40 °F

Location of Amsterdam IslandLocation

Past Weather in Amsterdam Island — Graph

°F

Amsterdam Island Temperature Yesterday

Maximum temperature yesterday: 60 °F (at 9:00 PM)
Minimum temperature yesterday: 52 °F (at 1:00 AM)
Average temperature yesterday: 57 °F

High & Low Weather Summary for the Past Weeks

 TemperatureHumidityPressure
High66 °F (May 15, 12:00 PM)92% (May 15, 7:00 AM)30.41 "Hg (May 15, 7:00 AM)
Low44 °F (May 24, 12:00 AM)44% (May 19, 5:00 PM)29.56 "Hg (May 25, 10:00 PM)
Average56 °F75%29.99 "Hg
* Reported May 11 1:00 PM — May 26 1:00 PM, Amsterdam Island, Weather by CustomWeather, © 2016

Note: Actual official high and low records may vary slightly from our data, if they occured in-between our weather recording intervals... More about our weather records

Advertising

Amsterdam Island Weather History for the Previous 24 Hours

Scroll right to see more
 ConditionsComfort  
Time TempWeatherWind HumidityBarometerVisibility
1:00 PM
Thu, May 26
54 °FCool.N/A57%29.93 "HgN/A
12:00 PM52 °FCool.N/A71%29.91 "HgN/A
11:00 AM52 °FCool.N/A71%29.89 "HgN/A
10:00 AM54 °FCool.N/A64%29.86 "HgN/A
9:00 AM50 °FCool.N/A78%29.83 "HgN/A
8:00 AM52 °FCool.N/A73%29.80 "HgN/A
7:00 AM50 °FCool.N/A76%29.77 "HgN/A
6:00 AM52 °FCool.N/A72%29.72 "HgN/A
5:00 AM53 °FCool.N/A66%29.68 "HgN/A
4:00 AM54 °FCool.N/A68%29.65 "HgN/A
3:00 AM56 °FCool.N/A61%29.64 "HgN/A
2:00 AM56 °FCool.N/A70%29.62 "HgN/A
1:00 AM56 °FCool.N/A67%29.61 "HgN/A
12:00 AM56 °FCool.N/A67%29.60 "HgN/A
11:00 PM
Wed, May 25
53 °FCool.N/A81%29.60 "HgN/A
10:00 PM59 °FCool.N/A88%29.56 "HgN/A
9:00 PM60 °FCool.N/A83%29.61 "HgN/A
8:00 PM60 °FCool.N/A82%29.67 "HgN/A
7:00 PM60 °FCool.N/A82%29.71 "HgN/A
6:00 PM60 °FCool.N/A82%29.75 "HgN/A
5:00 PM59 °FCool.N/A86%29.78 "HgN/A
4:00 PM59 °FCool.N/A82%29.82 "HgN/A
3:00 PM59 °FCool.N/A84%29.84 "HgN/A
2:00 PM59 °FCool.N/A85%29.87 "HgN/A
1:00 PM59 °FCool.N/A86%29.90 "HgN/A
Weather by CustomWeather, © 2016

See weather overviewHow to use our weather pages